This is the latest recevied weather packets stored in our database for station/object K1BES. If no packets are shown the sender has not sent any weather packets the latest 10 day(s).
| Time | Temp. | Humidity | Pressure | Rain* | Wind** | Luminosity | Snow |
|---|---|---|---|---|---|---|---|
| 1787843638 | 35° C | 62% | 1019.5 hPa | 0 mm | - | 788 W/m² | - |
| 1787843335 | 34.44° C | 63% | 1019.4 hPa | 0 mm | - | 765 W/m² | - |
| 1787843030 | 34.44° C | 63% | 1019.4 hPa | 0 mm | - | 756 W/m² | - |
| 1787842730 | 34.44° C | 62% | 1019.4 hPa | 0 mm | - | 734 W/m² | - |
| 1787842425 | 33.89° C | 64% | 1019.3 hPa | 0 mm | - | 712 W/m² | - |
| 1787842125 | 33.89° C | 64% | 1019 hPa | 0 mm | - | 688 W/m² | - |
| 1787841820 | 34.44° C | 63% | 1019.1 hPa | 0 mm | - | 665 W/m² | - |
| 1787841516 | 33.89° C | 62% | 1019 hPa | 0 mm | - | 650 W/m² | - |
| 1787841215 | 33.33° C | 65% | 1019.1 hPa | 0 mm | - | 630 W/m² | - |
| 1787840910 | 33.33° C | 67% | 1019.1 hPa | 0 mm | - | 611 W/m² | - |
| 1787840605 | 33.33° C | 65% | 1019.1 hPa | 0 mm | - | 593 W/m² | - |
| 1787840300 | 32.78° C | 67% | 1019.1 hPa | 0 mm | - | 574 W/m² | - |
| 1787840001 | 32.78° C | 67% | 1019 hPa | 0 mm | - | 564 W/m² | - |
| 1787839700 | 32.78° C | 66% | 1019 hPa | 0 mm | - | 541 W/m² | - |
| 1787839395 | 32.78° C | 68% | 1018.9 hPa | 0 mm | - | 512 W/m² | - |
| 1787839095 | 32.22° C | 67% | 1018.8 hPa | 0 mm | - | 492 W/m² | - |
| 1787838794 | 32.22° C | 68% | 1018.8 hPa | 0 mm | - | 472 W/m² | - |
| 1787838489 | 32.22° C | 68% | 1019 hPa | 0 mm | - | 450 W/m² | - |
| 1787838188 | 32.22° C | 68% | 1019 hPa | 0 mm | - | 429 W/m² | - |
| 1787837882 | 32.22° C | 70% | 1018.9 hPa | 0 mm | - | 409 W/m² | - |
| 1787837581 | 31.67° C | 72% | 1018.9 hPa | 0 mm | - | 386 W/m² | - |
| 1787837281 | 31.67° C | 71% | 1018.8 hPa | 0 mm | - | 248 W/m² | - |
| 1787836976 | 31.67° C | 72% | 1018.5 hPa | 0 mm | - | 162 W/m² | - |
| 1787836671 | 31.11° C | 71% | 1018.6 hPa | 0 mm | - | 77 W/m² | - |
| 1787836371 | 30.56° C | 72% | 1018.7 hPa | 0 mm | - | 292 W/m² | - |
* Rain latest hour (hover to see other rain measurements)
** Current wind speed in m/s (hover to see current wind gust speed)